| time (UTC) | temp F | wind direction | speed MPH | gust MPH | rain 1hr in | rain 24hr in | rain mn in | humidity % | barometer mb |
| 20260903230954 | 89 | 138 | 9.0 | 20.0 | 0.00 | 0.00 | 0.00 | 60 | 1010.9 |
| 20260903230452 | 90 | 119 | 20.0 | 20.0 | 0.00 | 0.00 | 0.00 | 59 | 1010.8 |
| 20260903225522 | 91 | 144 | 10.0 | 15.0 | 0.00 | 0.00 | 0.00 | 57 | 1010.8 |
| 20260903225023 | 91 | 127 | 10.0 | 15.0 | 0.00 | 0.00 | 0.00 | 57 | 1010.7 |
| 20260903224522 | 91 | 171 | 8.0 | 17.0 | 0.00 | 0.00 | 0.00 | 57 | 1010.7 |
| 20260903224022 | 91 | 132 | 11.0 | 18.0 | 0.00 | 0.00 | 0.00 | 57 | 1010.8 |
| 20260903223022 | 91 | 162 | 11.0 | 21.0 | 0.00 | 0.00 | 0.00 | 57 | 1010.7 |
| 20260903222524 | 92 | 141 | 12.0 | 21.0 | 0.00 | 0.00 | 0.00 | 57 | 1010.6 |
| 20260903222022 | 91 | 133 | 9.0 | 17.0 | 0.00 | 0.00 | 0.00 | 57 | 1010.7 |
| 20260903221522 | 92 | 171 | 8.0 | 21.0 | 0.00 | 0.00 | 0.00 | 56 | 1010.7 |
| 20260903221022 | 92 | 163 | 13.0 | 21.0 | 0.00 | 0.00 | 0.00 | 56 | 1010.7 |
| 20260903220522 | 91 | 140 | 17.0 | 20.0 | 0.00 | 0.00 | 0.00 | 57 | 1010.6 |
| 20260903220022 | 91 | 138 | 11.0 | 20.0 | 0.00 | 0.00 | 0.00 | 58 | 1010.8 |
| 20260903214952 | 92 | 188 | 12.0 | 18.0 | 0.00 | 0.00 | 0.00 | 57 | 1010.7 |
| 20260903214522 | 92 | 175 | 12.0 | 18.0 | 0.00 | 0.00 | 0.00 | 58 | 1010.7 |
| 20260903214022 | 91 | 144 | 13.0 | 18.0 | 0.00 | 0.00 | 0.00 | 58 | 1010.7 |
| 20260903213021 | 91 | 133 | 17.0 | 20.0 | 0.00 | 0.00 | 0.00 | 59 | 1010.8 |
| 20260903212452 | 91 | 128 | 20.0 | 21.0 | 0.00 | 0.00 | 0.00 | 59 | 1010.7 |
| 20260903212022 | 90 | 131 | 13.0 | 21.0 | 0.00 | 0.00 | 0.00 | 62 | 1010.9 |
| 20260903211521 | 89 | 118 | 17.0 | 20.0 | 0.00 | 0.00 | 0.00 | 63 | 1010.9 |
| 20260903211021 | 90 | 146 | 16.0 | 20.0 | 0.00 | 0.00 | 0.00 | 62 | 1011.0 |
| 20260903210521 | 90 | 145 | 13.0 | 20.0 | 0.00 | 0.00 | 0.00 | 62 | 1011.0 |
| 20260903210021 | 90 | 119 | 18.0 | 20.0 | 0.00 | 0.00 | 0.00 | 62 | 1011.1 |
| 20260903205521 | 89 | 140 | 12.0 | 20.0 | 0.00 | 0.00 | 0.00 | 63 | 1011.2 |
| 20260903204521 | 90 | 141 | 11.0 | 16.0 | 0.00 | 0.00 | 0.00 | 61 | 1011.3 |
| 20260903204021 | 90 | 120 | 10.0 | 14.0 | 0.00 | 0.00 | 0.00 | 61 | 1011.3 |
| 20260903203520 | 90 | 175 | 10.0 | 18.0 | 0.00 | 0.00 | 0.00 | 62 | 1011.4 |
| 20260903203020 | 90 | 142 | 11.0 | 18.0 | 0.00 | 0.00 | 0.00 | 62 | 1011.5 |
| 20260903202020 | 90 | 126 | 8.0 | 20.0 | 0.00 | 0.00 | 0.00 | 61 | 1011.5 |
| 20260903201020 | 91 | 160 | 11.0 | 21.0 | 0.00 | 0.00 | 0.00 | 60 | 1011.5 |
| 20260903200520 | 90 | 119 | 16.0 | 21.0 | 0.00 | 0.00 | 0.00 | 61 | 1011.5 |
| 20260903195520 | 92 | 157 | 10.0 | 17.0 | 0.00 | 0.00 | 0.00 | 57 | 1011.7 |
| 20260903195020 | 91 | 165 | 11.0 | 16.0 | 0.00 | 0.00 | 0.00 | 57 | 1011.8 |
| 20260903194520 | 91 | 164 | 15.0 | 15.0 | 0.00 | 0.00 | 0.00 | 57 | 1011.8 |
| 20260903194020 | 91 | 142 | 12.0 | 15.0 | 0.00 | 0.00 | 0.00 | 58 | 1011.9 |
| 20260903193520 | 91 | 147 | 10.0 | 17.0 | 0.00 | 0.00 | 0.00 | 57 | 1011.9 |
| 20260903193020 | 91 | 153 | 10.0 | 17.0 | 0.00 | 0.00 | 0.00 | 58 | 1012.0 |
| 20260903192520 | 91 | 121 | 7.0 | 17.0 | 0.00 | 0.00 | 0.00 | 56 | 1012.1 |
| 20260903192020 | 91 | 193 | 6.0 | 16.0 | 0.00 | 0.00 | 0.00 | 59 | 1012.2 |
| 20260903191520 | 90 | 164 | 12.0 | 17.0 | 0.00 | 0.00 | 0.00 | 60 | 1012.3 |
| 20260903191020 | 90 | 145 | 11.0 | 17.0 | 0.00 | 0.00 | 0.00 | 61 | 1012.4 |
| 20260903190520 | 89 | 173 | 7.0 | 15.0 | 0.00 | 0.00 | 0.00 | 61 | 1012.5 |
| 20260903190020 | 89 | 131 | 9.0 | 15.0 | 0.00 | 0.00 | 0.00 | 61 | 1012.6 |
| 20260903185521 | 89 | 171 | 12.0 | 18.0 | 0.00 | 0.00 | 0.00 | 61 | 1012.7 |
| 20260903185019 | 89 | 182 | 8.0 | 18.0 | 0.00 | 0.00 | 0.00 | 61 | 1012.8 |
| 20260903184520 | 89 | 131 | 5.0 | 22.0 | 0.00 | 0.00 | 0.00 | 62 | 1012.8 |
| 20260903184019 | 89 | 160 | 14.0 | 22.0 | 0.00 | 0.00 | 0.00 | 61 | 1012.9 |
| 20260903183519 | 89 | 131 | 13.0 | 20.0 | 0.00 | 0.00 | 0.00 | 61 | 1012.9 |
| 20260903183020 | 89 | 145 | 7.0 | 20.0 | 0.00 | 0.00 | 0.00 | 62 | 1013.0 |
| 20260903182519 | 90 | 139 | 12.0 | 20.0 | 0.00 | 0.00 | 0.00 | 62 | 1013.0 |
| 20260903182019 | 88 | 119 | 11.0 | 20.0 | 0.00 | 0.00 | 0.00 | 64 | 1013.1 |
| 20260903181519 | 88 | 129 | 10.0 | 18.0 | 0.00 | 0.00 | 0.00 | 63 | 1013.2 |
| 20260903181019 | 88 | 142 | 11.0 | 20.0 | 0.00 | 0.00 | 0.00 | 64 | 1013.2 |
| 20260903180519 | 88 | 0 | 0.0 | 20.0 | 0.00 | 0.00 | 0.00 | 65 | 1013.1 |
| 20260903175519 | 88 | 158 | 12.0 | 17.0 | 0.00 | 0.00 | 0.00 | 64 | 1013.3 |
| 20260903175019 | 88 | 158 | 13.0 | 16.0 | 0.00 | 0.00 | 0.00 | 64 | 1013.4 |
| 20260903174519 | 87 | 130 | 15.0 | 15.0 | 0.00 | 0.00 | 0.00 | 65 | 1013.4 |
| 20260903174019 | 87 | 176 | 9.0 | 17.0 | 0.00 | 0.00 | 0.00 | 66 | 1013.5 |
| 20260903173519 | 87 | 140 | 10.0 | 19.0 | 0.00 | 0.00 | 0.00 | 66 | 1013.5 |
| 20260903173019 | 87 | 119 | 14.0 | 19.0 | 0.00 | 0.00 | 0.00 | 66 | 1013.6 |
| 20260903172519 | 87 | 172 | 16.0 | 17.0 | 0.00 | 0.00 | 0.00 | 67 | 1013.6 |
| 20260903172018 | 87 | 111 | 15.0 | 17.0 | 0.00 | 0.00 | 0.00 | 65 | 1013.6 |
| 20260903171518 | 87 | 162 | 11.0 | 18.0 | 0.00 | 0.00 | 0.00 | 66 | 1013.7 |
| 20260903171018 | 87 | 130 | 13.0 | 20.0 | 0.00 | 0.00 | 0.00 | 66 | 1013.7 |
| 20260903170518 | 86 | 158 | 13.0 | 20.0 | 0.00 | 0.00 | 0.00 | 67 | 1013.7 |
| 20260903170018 | 86 | 157 | 13.0 | 15.0 | 0.00 | 0.00 | 0.00 | 68 | 1013.8 |
| 20260903164518 | 86 | 135 | 9.0 | 15.0 | 0.00 | 0.00 | 0.00 | 68 | 1013.9 |
| 20260903164019 | 87 | 163 | 11.0 | 16.0 | 0.00 | 0.00 | 0.00 | 66 | 1013.8 |
| 20260903163518 | 87 | 185 | 6.0 | 16.0 | 0.00 | 0.00 | 0.00 | 67 | 1013.9 |
| 20260903162518 | 86 | 128 | 15.0 | 15.0 | 0.00 | 0.00 | 0.00 | 67 | 1013.9 |
| 20260903162018 | 86 | 107 | 11.0 | 14.0 | 0.00 | 0.00 | 0.00 | 68 | 1014.0 |
| 20260903161018 | 84 | 165 | 4.0 | 16.0 | 0.00 | 0.00 | 0.00 | 70 | 1014.0 |
| 20260903160518 | 85 | 168 | 8.0 | 16.0 | 0.00 | 0.00 | 0.00 | 70 | 1014.0 |
| 20260903160018 | 85 | 156 | 13.0 | 16.0 | 0.00 | 0.00 | 0.00 | 69 | 1014.0 |
| 20260903155518 | 85 | 140 | 7.0 | 15.0 | 0.00 | 0.00 | 0.00 | 71 | 1014.0 |
| 20260903155018 | 84 | 161 | 8.0 | 14.0 | 0.00 | 0.00 | 0.00 | 71 | 1014.0 |
| 20260903154517 | 84 | 144 | 8.0 | 15.0 | 0.00 | 0.00 | 0.00 | 72 | 1014.0 |
| 20260903154017 | 83 | 158 | 10.0 | 15.0 | 0.00 | 0.00 | 0.00 | 73 | 1013.9 |
| 20260903153517 | 83 | 148 | 14.0 | 14.0 | 0.00 | 0.00 | 0.00 | 75 | 1013.9 |
| 20260903153018 | 83 | 157 | 14.0 | 14.0 | 0.00 | 0.00 | 0.00 | 74 | 1013.9 |
| 20260903152517 | 82 | 0 | 0.0 | 14.0 | 0.00 | 0.00 | 0.00 | 75 | 1013.9 |
| 20260903151517 | 82 | 128 | 8.0 | 17.0 | 0.00 | 0.00 | 0.00 | 75 | 1014.0 |
| 20260903151018 | 82 | 162 | 11.0 | 17.0 | 0.00 | 0.00 | 0.00 | 75 | 1013.9 |
| 20260903150517 | 83 | 107 | 13.0 | 16.0 | 0.00 | 0.00 | 0.00 | 74 | 1013.9 |
| 20260903150017 | 82 | 117 | 12.0 | 15.0 | 0.00 | 0.00 | 0.00 | 74 | 1014.0 |
| 20260903145517 | 82 | 124 | 11.0 | 16.0 | 0.00 | 0.00 | 0.00 | 74 | 1014.0 |
| 20260903145017 | 82 | 123 | 12.0 | 16.0 | 0.00 | 0.00 | 0.00 | 74 | 1014.0 |
| 20260903144517 | 82 | 111 | 13.0 | 15.0 | 0.00 | 0.00 | 0.00 | 74 | 1014.1 |
| 20260903144017 | 82 | 0 | 0.0 | 15.0 | 0.00 | 0.00 | 0.00 | 74 | 1014.0 |
| 20260903143517 | 82 | 112 | 8.0 | 15.0 | 0.00 | 0.00 | 0.00 | 75 | 1014.1 |
| 20260903143017 | 82 | 0 | 0.0 | 15.0 | 0.00 | 0.00 | 0.00 | 75 | 1014.0 |
| 20260903142517 | 81 | 118 | 9.0 | 14.0 | 0.00 | 0.00 | 0.00 | 75 | 1014.0 |
| 20260903142016 | 81 | 141 | 9.0 | 13.0 | 0.00 | 0.00 | 0.00 | 76 | 1013.9 |
| 20260903141516 | 81 | 126 | 8.0 | 11.0 | 0.00 | 0.00 | 0.00 | 76 | 1014.0 |
| 20260903141016 | 81 | 121 | 9.0 | 11.0 | 0.00 | 0.00 | 0.00 | 77 | 1014.0 |
| 20260903140517 | 81 | 114 | 6.0 | 11.0 | 0.00 | 0.00 | 0.00 | 77 | 1014.0 |
| 20260903140016 | 80 | 115 | 7.0 | 10.0 | 0.00 | 0.00 | 0.00 | 79 | 1014.1 |
| 20260903135516 | 80 | 142 | 7.0 | 11.0 | 0.00 | 0.00 | 0.00 | 80 | 1014.1 |
| 20260903135016 | 79 | 93 | 8.0 | 13.0 | 0.00 | 0.00 | 0.00 | 82 | 1014.1 |
| 20260903134016 | 79 | 76 | 11.0 | 13.0 | 0.00 | 0.00 | 0.00 | 84 | 1014.0 |
| 20260903133516 | 79 | 87 | 8.0 | 11.0 | 0.00 | 0.00 | 0.00 | 84 | 1014.1 |
| 20260903133016 | 79 | 95 | 7.0 | 10.0 | 0.00 | 0.00 | 0.00 | 86 | 1014.1 |
| 20260903132516 | 78 | 84 | 9.0 | 14.0 | 0.00 | 0.00 | 0.00 | 87 | 1014.1 |
| 20260903132016 | 78 | 91 | 8.0 | 14.0 | 0.00 | 0.00 | 0.00 | 88 | 1014.1 |
| 20260903131015 | 77 | 105 | 9.0 | 11.0 | 0.00 | 0.00 | 0.00 | 89 | 1014.2 |
| 20260903130517 | 77 | 84 | 9.0 | 11.0 | 0.00 | 0.00 | 0.00 | 89 | 1014.2 |
| 20260903130016 | 77 | 76 | 8.0 | 8.0 | 0.00 | 0.00 | 0.00 | 87 | 1014.2 |
| 20260903125015 | 76 | 91 | 7.0 | 7.0 | 0.00 | 0.00 | 0.00 | 88 | 1014.2 |
| 20260903124515 | 76 | 94 | 5.0 | 6.0 | 0.00 | 0.00 | 0.00 | 88 | 1014.0 |
| 20260903124016 | 76 | 93 | 4.0 | 6.0 | 0.00 | 0.00 | 0.00 | 88 | 1013.9 |
| 20260903123515 | 76 | 90 | 3.0 | 4.0 | 0.00 | 0.00 | 0.00 | 88 | 1013.7 |
| 20260903123015 | 75 | 68 | 2.0 | 5.0 | 0.00 | 0.00 | 0.00 | 89 | 1013.6 |
| 20260903121515 | 76 | 104 | 7.0 | 8.0 | 0.00 | 0.00 | 0.00 | 88 | 1013.7 |
| 20260903121015 | 77 | 117 | 3.0 | 3.0 | 0.00 | 0.00 | 0.00 | 86 | 1013.6 |
| 20260903120015 | 76 | 222 | 2.0 | 3.0 | 0.00 | 0.00 | 0.00 | 87 | 1013.5 |
| 20260903115515 | 76 | 126 | 1.0 | 4.0 | 0.00 | 0.00 | 0.00 | 88 | 1013.5 |
| 20260903115015 | 76 | 18 | 2.0 | 4.0 | 0.00 | 0.00 | 0.00 | 88 | 1013.4 |
| 20260903114515 | 76 | 34 | 3.0 | 5.0 | 0.00 | 0.00 | 0.00 | 88 | 1013.4 |
| 20260903114015 | 76 | 36 | 5.0 | 5.0 | 0.00 | 0.00 | 0.00 | 88 | 1013.4 |
| 20260903113515 | 76 | 81 | 3.0 | 6.0 | 0.00 | 0.00 | 0.00 | 87 | 1013.5 |
| 20260903113015 | 76 | 115 | 4.0 | 7.0 | 0.00 | 0.00 | 0.00 | 88 | 1013.6 |
| 20260903112515 | 76 | 105 | 5.0 | 7.0 | 0.00 | 0.00 | 0.00 | 88 | 1013.6 |
| 20260903111515 | 76 | 97 | 5.0 | 5.0 | 0.00 | 0.00 | 0.00 | 88 | 1013.5 |
| 20260903111015 | 76 | 84 | 5.0 | 5.0 | 0.00 | 0.00 | 0.00 | 88 | 1013.5 |
| 20260903110515 | 76 | 84 | 3.0 | 5.0 | 0.00 | 0.00 | 0.00 | 88 | 1013.5 |
| 20260903110014 | 76 | 84 | 3.0 | 6.0 | 0.00 | 0.00 | 0.00 | 88 | 1013.4 |
| 20260903105515 | 76 | 107 | 5.0 | 7.0 | 0.00 | 0.00 | 0.00 | 87 | 1013.4 |
| 20260903104515 | 76 | 99 | 5.0 | 8.0 | 0.00 | 0.00 | 0.00 | 87 | 1013.3 |
| 20260903104014 | 77 | 104 | 7.0 | 8.0 | 0.00 | 0.00 | 0.00 | 87 | 1013.3 |
| 20260903103515 | 77 | 103 | 6.0 | 9.0 | 0.00 | 0.00 | 0.00 | 86 | 1013.3 |
| 20260903102514 | 76 | 106 | 6.0 | 7.0 | 0.00 | 0.00 | 0.00 | 87 | 1013.4 |
| 20260903102044 | 76 | 86 | 4.0 | 4.0 | 0.00 | 0.00 | 0.00 | 86 | 1013.4 |
| 20260903101514 | 76 | 74 | 3.0 | 5.0 | 0.00 | 0.00 | 0.00 | 86 | 1013.5 |
| 20260903101014 | 77 | 90 | 4.0 | 6.0 | 0.00 | 0.00 | 0.00 | 85 | 1013.4 |
| 20260903100014 | 77 | 98 | 5.0 | 5.0 | 0.00 | 0.00 | 0.00 | 85 | 1013.5 |
| 20260903095014 | 76 | 101 | 4.0 | 4.0 | 0.00 | 0.00 | 0.00 | 86 | 1013.5 |
| 20260903094514 | 76 | 104 | 3.0 | 4.0 | 0.00 | 0.00 | 0.00 | 86 | 1013.4 |
| 20260903094014 | 76 | 45 | 4.0 | 4.0 | 0.00 | 0.00 | 0.00 | 86 | 1013.4 |
| 20260903093513 | 76 | 93 | 3.0 | 4.0 | 0.00 | 0.00 | 0.00 | 86 | 1013.3 |
| 20260903092513 | 76 | 180 | 2.0 | 3.0 | 0.00 | 0.00 | 0.00 | 86 | 1013.4 |
| 20260903092013 | 76 | 242 | 2.0 | 5.0 | 0.00 | 0.00 | 0.00 | 86 | 1013.4 |
| 20260903091513 | 76 | 246 | 5.0 | 5.0 | 0.00 | 0.00 | 0.00 | 86 | 1013.4 |
| 20260903090013 | 76 | 100 | 6.0 | 7.0 | 0.00 | 0.00 | 0.00 | 86 | 1013.3 |
| 20260903085513 | 76 | 85 | 5.0 | 7.0 | 0.00 | 0.00 | 0.00 | 85 | 1013.2 |
| 20260903084513 | 77 | 79 | 5.0 | 7.0 | 0.00 | 0.00 | 0.00 | 85 | 1013.2 |
| 20260903084013 | 77 | 86 | 5.0 | 7.0 | 0.00 | 0.00 | 0.00 | 84 | 1013.2 |
| 20260903083513 | 77 | 87 | 5.0 | 9.0 | 0.00 | 0.00 | 0.00 | 84 | 1013.2 |
| 20260903083013 | 77 | 83 | 7.0 | 10.0 | 0.00 | 0.00 | 0.00 | 84 | 1013.2 |
| 20260903082513 | 77 | 100 | 9.0 | 10.0 | 0.00 | 0.00 | 0.00 | 84 | 1013.3 |
| 20260903081513 | 77 | 93 | 7.0 | 9.0 | 0.00 | 0.00 | 0.00 | 82 | 1013.4 |
| 20260903080512 | 77 | 90 | 4.0 | 6.0 | 0.00 | 0.00 | 0.00 | 82 | 1013.4 |
| 20260903080012 | 77 | 89 | 5.0 | 6.0 | 0.00 | 0.00 | 0.00 | 82 | 1013.4 |
| 20260903075512 | 78 | 77 | 5.0 | 6.0 | 0.00 | 0.00 | 0.00 | 81 | 1013.3 |
| 20260903075012 | 78 | 99 | 5.0 | 8.0 | 0.00 | 0.00 | 0.00 | 81 | 1013.3 |
| 20260903074013 | 78 | 94 | 7.0 | 7.0 | 0.00 | 0.00 | 0.00 | 80 | 1013.3 |
| 20260903073013 | 78 | 102 | 7.0 | 7.0 | 0.00 | 0.00 | 0.00 | 80 | 1013.4 |
| 20260903072512 | 78 | 97 | 6.0 | 7.0 | 0.00 | 0.00 | 0.00 | 80 | 1013.3 |
| 20260903072012 | 78 | 98 | 4.0 | 8.0 | 0.00 | 0.00 | 0.00 | 79 | 1013.4 |
| 20260903071012 | 79 | 90 | 7.0 | 10.0 | 0.00 | 0.00 | 0.00 | 78 | 1013.5 |
| 20260903070512 | 79 | 97 | 7.0 | 10.0 | 0.00 | 0.00 | 0.00 | 78 | 1013.5 |
| 20260903065512 | 79 | 108 | 9.0 | 10.0 | 0.00 | 0.00 | 0.00 | 77 | 1013.6 |
| 20260903065012 | 80 | 118 | 10.0 | 12.0 | 0.00 | 0.00 | 0.00 | 76 | 1013.6 |
| 20260903064512 | 80 | 103 | 9.0 | 12.0 | 0.00 | 0.00 | 0.00 | 76 | 1013.6 |
| 20260903064012 | 80 | 116 | 9.0 | 14.0 | 0.00 | 0.00 | 0.00 | 75 | 1013.7 |
| 20260903063512 | 80 | 108 | 10.0 | 15.0 | 0.00 | 0.00 | 0.00 | 74 | 1013.7 |
| 20260903063012 | 81 | 105 | 11.0 | 15.0 | 0.00 | 0.00 | 0.00 | 74 | 1013.7 |
| 20260903062512 | 81 | 109 | 11.0 | 15.0 | 0.00 | 0.00 | 0.00 | 73 | 1013.8 |
| 20260903061511 | 81 | 124 | 10.0 | 11.0 | 0.00 | 0.00 | 0.00 | 71 | 1013.9 |
| 20260903060511 | 81 | 107 | 7.0 | 11.0 | 0.00 | 0.00 | 0.00 | 70 | 1013.9 |
| 20260903060011 | 82 | 111 | 7.0 | 13.0 | 0.00 | 0.00 | 0.00 | 69 | 1013.9 |
| 20260903055512 | 82 | 111 | 9.0 | 13.0 | 0.00 | 0.00 | 0.00 | 69 | 1013.9 |
| 20260903055011 | 82 | 113 | 8.0 | 12.0 | 0.00 | 0.00 | 0.00 | 68 | 1013.9 |
| 20260903054512 | 82 | 110 | 9.0 | 11.0 | 0.00 | 0.00 | 0.00 | 68 | 1013.9 |
| 20260903054011 | 82 | 110 | 11.0 | 11.0 | 0.00 | 0.00 | 0.00 | 67 | 1013.9 |
| 20260903053511 | 82 | 106 | 8.0 | 11.0 | 0.00 | 0.00 | 0.00 | 67 | 1013.9 |
| 20260903053012 | 82 | 111 | 8.0 | 12.0 | 0.00 | 0.00 | 0.00 | 66 | 1013.9 |
| 20260903052511 | 83 | 106 | 9.0 | 13.0 | 0.00 | 0.00 | 0.00 | 66 | 1013.9 |
| 20260903051511 | 83 | 103 | 9.0 | 13.0 | 0.00 | 0.00 | 0.00 | 66 | 1013.8 |
| 20260903051011 | 83 | 104 | 10.0 | 11.0 | 0.00 | 0.00 | 0.00 | 66 | 1013.9 |
| 20260903050511 | 83 | 102 | 8.0 | 10.0 | 0.00 | 0.00 | 0.00 | 65 | 1013.9 |
| 20260903050011 | 83 | 104 | 9.0 | 12.0 | 0.00 | 0.00 | 0.00 | 65 | 1013.9 |
| 20260903045511 | 83 | 109 | 10.0 | 12.0 | 0.00 | 0.00 | 0.00 | 64 | 1013.9 |
| 20260903045011 | 84 | 120 | 8.0 | 12.0 | 0.00 | 0.00 | 0.00 | 64 | 1013.7 |
| 20260903044511 | 84 | 124 | 8.0 | 14.0 | 0.00 | 0.00 | 0.00 | 63 | 1013.7 |
| 20260903044011 | 84 | 124 | 9.0 | 17.0 | 0.00 | 0.00 | 0.00 | 63 | 1013.7 |
| 20260903043010 | 85 | 127 | 10.0 | 17.0 | 0.00 | 0.00 | 0.00 | 63 | 1013.7 |
| 20260903042511 | 85 | 118 | 14.0 | 17.0 | 0.00 | 0.00 | 0.00 | 62 | 1013.6 |
| 20260903042010 | 85 | 118 | 16.0 | 18.0 | 0.00 | 0.00 | 0.00 | 62 | 1013.6 |
| 20260903041010 | 86 | 116 | 15.0 | 18.0 | 0.00 | 0.00 | 0.00 | 60 | 1013.7 |
| 20260903040510 | 87 | 117 | 13.0 | 19.0 | 0.00 | 0.00 | 0.00 | 59 | 1013.6 |
| 20260903040010 | 87 | 119 | 14.0 | 19.0 | 0.00 | 0.00 | 0.00 | 58 | 1013.6 |
| 20260903035510 | 87 | 119 | 15.0 | 19.0 | 0.00 | 0.00 | 0.00 | 57 | 1013.5 |
| 20260903035010 | 87 | 118 | 11.0 | 18.0 | 0.00 | 0.00 | 0.00 | 56 | 1013.6 |
| 20260903034510 | 88 | 0 | 0.0 | 17.0 | 0.00 | 0.00 | 0.00 | 55 | 1013.6 |
| 20260903033510 | 88 | 117 | 10.0 | 17.0 | 0.00 | 0.00 | 0.00 | 53 | 1013.5 |
| 20260903033010 | 88 | 117 | 11.0 | 19.0 | 0.00 | 0.00 | 0.00 | 53 | 1013.5 |
| 20260903032510 | 89 | 117 | 13.0 | 19.0 | 0.00 | 0.00 | 0.00 | 52 | 1013.5 |
| 20260903032010 | 89 | 116 | 11.0 | 18.0 | 0.00 | 0.00 | 0.00 | 52 | 1013.4 |
| 20260903031510 | 89 | 117 | 10.0 | 18.0 | 0.00 | 0.00 | 0.00 | 52 | 1013.5 |
| 20260903030509 | 88 | 108 | 7.0 | 15.0 | 0.00 | 0.00 | 0.00 | 53 | 1013.4 |
| 20260903030010 | 88 | 117 | 9.0 | 15.0 | 0.00 | 0.00 | 0.00 | 53 | 1013.3 |
| 20260903025010 | 89 | 109 | 7.0 | 12.0 | 0.00 | 0.00 | 0.00 | 53 | 1013.2 |
| 20260903024509 | 89 | 114 | 12.0 | 12.0 | 0.00 | 0.00 | 0.00 | 53 | 1013.2 |
| 20260903024009 | 89 | 109 | 8.0 | 11.0 | 0.00 | 0.00 | 0.00 | 53 | 1013.1 |
| 20260903023509 | 89 | 96 | 9.0 | 11.0 | 0.00 | 0.00 | 0.00 | 52 | 1013.1 |
| 20260903022510 | 89 | 107 | 7.0 | 10.0 | 0.00 | 0.00 | 0.00 | 52 | 1013.0 |
| 20260903022009 | 89 | 113 | 8.0 | 10.0 | 0.00 | 0.00 | 0.00 | 52 | 1012.9 |
| 20260903021509 | 90 | 104 | 7.0 | 9.0 | 0.00 | 0.00 | 0.00 | 51 | 1013.0 |
| 20260903021009 | 90 | 101 | 9.0 | 11.0 | 0.00 | 0.00 | 0.00 | 51 | 1012.9 |
| 20260903020509 | 90 | 113 | 8.0 | 12.0 | 0.00 | 0.00 | 0.00 | 51 | 1012.8 |
| 20260903020009 | 90 | 115 | 9.0 | 12.0 | 0.00 | 0.00 | 0.00 | 51 | 1012.7 |
| 20260903015509 | 90 | 120 | 8.0 | 11.0 | 0.00 | 0.00 | 0.00 | 51 | 1012.6 |
| 20260903015009 | 91 | 111 | 8.0 | 11.0 | 0.00 | 0.00 | 0.00 | 51 | 1012.5 |
| 20260903014509 | 91 | 123 | 10.0 | 13.0 | 0.00 | 0.00 | 0.00 | 50 | 1012.4 |
| 20260903014009 | 91 | 122 | 9.0 | 13.0 | 0.00 | 0.00 | 0.00 | 49 | 1012.4 |
| 20260903013009 | 91 | 114 | 11.0 | 17.0 | 0.00 | 0.00 | 0.00 | 47 | 1012.3 |
| 20260903012509 | 92 | 105 | 11.0 | 18.0 | 0.00 | 0.00 | 0.00 | 46 | 1012.2 |
| 20260903012010 | 92 | 109 | 9.0 | 18.0 | 0.00 | 0.00 | 0.00 | 45 | 1012.1 |
| 20260903011509 | 92 | 104 | 9.0 | 11.0 | 0.00 | 0.00 | 0.00 | 44 | 1012.1 |
| 20260903011009 | 92 | 92 | 8.0 | 13.0 | 0.00 | 0.00 | 0.00 | 43 | 1012.1 |
| 20260903010508 | 93 | 95 | 8.0 | 14.0 | 0.00 | 0.00 | 0.00 | 43 | 1012.0 |
| 20260903010008 | 93 | 89 | 11.0 | 14.0 | 0.00 | 0.00 | 0.00 | 43 | 1011.9 |
| 20260903005508 | 93 | 103 | 10.0 | 14.0 | 0.00 | 0.00 | 0.00 | 42 | 1012.0 |
| 20260903005008 | 93 | 107 | 7.0 | 14.0 | 0.00 | 0.00 | 0.00 | 41 | 1012.0 |
| 20260903004508 | 94 | 95 | 8.0 | 15.0 | 0.00 | 0.00 | 0.00 | 41 | 1011.9 |
| 20260903004008 | 94 | 95 | 9.0 | 15.0 | 0.00 | 0.00 | 0.00 | 41 | 1011.9 |
| 20260903003508 | 94 | 96 | 11.0 | 19.0 | 0.00 | 0.00 | 0.00 | 40 | 1011.9 |
| 20260903003008 | 95 | 116 | 13.0 | 19.0 | 0.00 | 0.00 | 0.00 | 40 | 1011.8 |
| 20260903002509 | 95 | 98 | 14.0 | 16.0 | 0.00 | 0.00 | 0.00 | 40 | 1011.8 |
| 20260903001508 | 95 | 94 | 10.0 | 14.0 | 0.00 | 0.00 | 0.00 | 40 | 1011.9 |
| 20260903001008 | 95 | 90 | 10.0 | 14.0 | 0.00 | 0.00 | 0.00 | 40 | 1011.9 |
| 20260903000511 | 95 | 111 | 13.0 | 15.0 | 0.00 | 0.00 | 0.00 | 39 | 1011.8 |
| 20260903000008 | 95 | 111 | 12.0 | 16.0 | 0.00 | 0.00 | 0.00 | 39 | 1011.8 |
| 20260902235508 | 95 | 109 | 10.0 | 16.0 | 0.00 | 0.00 | 0.00 | 39 | 1011.8 |
| 20260902235008 | 96 | 91 | 8.0 | 17.0 | 0.00 | 0.00 | 0.00 | 39 | 1011.9 |
| 20260902234508 | 96 | 108 | 12.0 | 17.0 | 0.00 | 0.00 | 0.00 | 39 | 1011.8 |
| 20260902234008 | 96 | 82 | 9.0 | 18.0 | 0.00 | 0.00 | 0.00 | 39 | 1011.9 |
| 20260902233008 | 96 | 75 | 15.0 | 18.0 | 0.00 | 0.00 | 0.00 | 38 | 1011.8 |
| 20260902232508 | 96 | 84 | 15.0 | 18.0 | 0.00 | 0.00 | 0.00 | 39 | 1011.7 |